GPS BIIR-11

Last updated on Sat Aug 15 2026 00:02:48 GMT+0000 (Coordinated Universal Time)

1 28190U 04009A 26226.23073152 -.00000016 00000+0 00000+0 0 9990 2 28190 54.7837 273.3379 0118048 175.5921 185.7548 2.00552622164117
UTC large
Height (km)
Speed (km/s)
/
Latitude / Longitude
Inclination (degrees)
Orbital Period (minutes)
Azimuth
Elevation
Range (km)
Doppler Factor

Next 0 passes for location: London (51.5072 / 0.1276)

No passes found over London.
GPS BIIR-11